This demonstration page uses our WeatherBlox Daily Observations layout. Learn more.

Left ArrowRight Arrow

34.74481, -87.66753

Hourly Observations for July 15, 2022

Temp ( °F °C ) Dew Point ( °F °C ) Humidity (%) Winds ( mph kmh ) Pressure ( in mb ) Visibility ( mi km ) Precip ( " mm )
12:53 am 00:53 Clear 72 22.2 69 20.6 91 91 Calm 30.11 1020 10 16 0.00 0.00
1:53 am 01:53 Clear 71 21.7 69 20.6 94 94 Calm 30.11 1020 10 16 0.00 0.00
2:53 am 02:53 Clear with Mist and Fog 69 20.6 68 20 96 96 Calm 30.09 1019 3 5 0.00 0.00
3:53 am 03:53 Clear 70 21.1 67 19.4 90 90 Calm 30.10 1019 8 13 0.00 0.00
4:53 am 04:53 Clear with Mist and Fog 68 20 67 19.4 96 96 Calm 30.10 1019 5 8 0.00 0.00
5:51 am 05:51 Sunny with Mist and Fog 68 20 66 19 94 94 Calm 30.12 1020 3 4 0.00 0.00
5:53 am 05:53 Sunny with Mist and Fog 68 20 66 18.9 93 93 Calm 30.11 1020 3 4 0.00 0.00
6:00 am 06:00 Sunny with Mist and Fog 69 20.6 67 19.4 93 93 Calm 30.12 1020 3 5 0.00 0.00
6:53 am 06:53 Sunny with Mist and Fog 72 22.2 69 20.6 91 91 Calm 30.11 1020 6 10 0.00 0.00
7:53 am 07:53 Sunny 76 24.4 71 21.7 85 85 Calm 30.11 1020 8 13 0.00 0.00
8:53 am 08:53 Sunny 80 26.7 71 21.7 74 74 Calm 30.13 1020 10 16 0.00 0.00
9:53 am 09:53 Sunny 85 29.4 70 21.1 61 61 Calm 30.12 1020 10 16 0.00 0.00
10:53 am 10:53 Sunny 88 31.1 68 20 52 52 Calm 30.13 1020 10 16 0.00 0.00
11:53 am 11:53 Sunny 90 32.2 67 19.4 47 47 E 7 11 30.12 1020 10 16 0.00 0.00
12:53 pm 12:53 Sunny 92 33.3 63 17.2 38 38 VRB 5 7 30.11 1020 10 16 0.00 0.00
1:53 pm 13:53 Sunny 92 33.3 62 16.7 37 37 ENE 7 11 30.10 1019 10 16 0.00 0.00
2:53 pm 14:53 Sunny 93 33.9 61 16.1 34 34 NE 6 9 30.08 1019 10 16 0.00 0.00
3:53 pm 15:53 Sunny 93 33.9 62 16.7 36 36 ESE 7 11 30.07 1018 10 16 0.00 0.00
4:53 pm 16:53 Sunny 93 33.9 62 16.7 36 36 Calm 30.06 1018 10 16 0.00 0.00
5:53 pm 17:53 Sunny 92 33.3 61 16.1 36 36 Calm 30.04 1017 10 16 0.00 0.00
6:53 pm 18:53 Sunny 91 32.8 63 17.2 39 39 Calm 30.02 1017 10 16 0.00 0.00
7:53 pm 19:53 Sunny 83 28.3 69 20.6 63 63 Calm 30.02 1017 10 16 0.00 0.00
8:53 pm 20:53 Clear 79 26.1 69 20.6 72 72 Calm 30.02 1017 10 16 0.00 0.00
9:53 pm 21:53 Clear 75 23.9 70 21.1 84 84 Calm 30.03 1017 10 16 0.00 0.00
10:53 pm 22:53 Clear 74 23.3 69 20.6 85 85 Calm 30.06 1018 10 16 0.00 0.00
11:53 pm 23:53 Clear 74 23.3 69 20.6 85 85 Calm 30.06 1018 10 16 0.00 0.00

Powered by AerisWeather